Regional Weather Roundup
Issued by NWS

Home | Current Version | Previous Version | Graphics & Text | Print | Product List | Glossary On
Versions: 1 2 3 4 5 6 7 8 9 10 11 12 13 14 15 16 17 18 19 20 21 22 23 24 25 26 27 28 29 30 31 32 33 34 35 36 37 38 39 40 41 42 43 44 45 46 47 48 49 50
000
ASUS45 KABQ 302310
RWRNM
WEATHER ROUNDUP FOR NEW MEXICO
NATIONAL WEATHER SERVICE ALBUQUERQUE NM
500 PM MDT TUE SEP 30 2014

NOTE: "FAIR" MEANS FEW OR NO CLOUDS BELOW 12,000 FEET AGL WITH NO
       SIGNIFICANT WEATHER OR OBSTRUCTIONS TO VISION.

      THIS PRODUCT IS RELEASED AS TWO VERSIONS.  ONE VERSION NEAR
      THE TOP OF THE HOUR CONTAINING PRELIMINARY DATA FROM ALBUQUERQUE
      AND OTHER STATIONS.  A FINAL VERSION WITH ADDITIONAL DATA IS
      ISSUED ABOUT 10 MINUTES AFTER THE HOUR.

NMZ501-503-504-510>518-010000-
NORTHWEST PLATEAU/NORTHCENTRAL MOUNTAINS

CITY           SKY/WX    TMP DP  RH WIND       PRES   REMARKS
FARMINGTON     SUNNY     67  34  29 W9        29.96S
LOS ALAMOS     SUNNY     64  30  28 W7G16     30.01S
SANTA FE       SUNNY     70  26  19 W18G28    29.94R
TAOS           PTSUNNY   63  30  29 W14G20    30.00S
ANGEL FIRE     FAIR      56  29  35 W18G25    30.04R

$$
NMZ402-403-502-505>509-010000-
WESTCENTRAL MOUNTAINS/SOUTHWEST MOUNTAINS

CITY           SKY/WX    TMP DP  RH WIND       PRES   REMARKS
GALLUP         SUNNY     66  33  29 W15       30.01F
GRANTS         SUNNY     70  28  21 NW7       30.01S
SILVER CITY    SUNNY     73  28  19 NW17      29.99S

$$
NMZ407-409-411-412-010000-
SOUTHERN DESERTS

CITY           SKY/WX    TMP DP  RH WIND       PRES   REMARKS
LORDSBURG      FAIR      79  32  18 MISG      29.91S
DEMING         SUNNY     80  39  23 W16G25    29.89F
LAS CRUCES     SUNNY     81  40  23 W16       29.90F
HOLLOMAN AFB   MOSUNNY   82  37  19 SW8       29.84F
ALAMOGORDO     MOSUNNY   81  37  21 SW5       29.87F
T OR C         SUNNY     80  30  16 SE5       29.87F

$$
NMZ519>523-010000-
CENTRAL VALLEYS/CENTRAL HIGHLANDS

CITY           SKY/WX    TMP DP  RH WIND       PRES   REMARKS
ALBUQUERQUE    MOSUNNY   74  30  19 VRB5      29.91F
DOUBLE EAGLE   MOSUNNY   73  32  21 W8        29.95F
MORIARTY ARPT  FAIR      70  30  22 W14       29.98S
CLINES CORNERS SUNNY     66  31  27 W22G29    29.98S
BELEN          FAIR      74  33  21 SE8       29.91S
SOCORRO        FAIR      77  36  22 SE12      29.89F

$$
NMZ524>526-539-540-010000-
SOUTHCENTRAL MOUNTAINS

CITY           SKY/WX    TMP DP  RH WIND       PRES   REMARKS
RUIDOSO        NOT AVBL

$$
NMZ527>531-010000-
NORTHEAST HIGHLANDS/NORTHEAST PLAINS

CITY           SKY/WX    TMP DP  RH WIND       PRES   REMARKS
LAS VEGAS      SUNNY     70  33  25 W16G22    29.92R
RATON          SUNNY     72  33  24 W14       29.84S
CLAYTON        SUNNY     75  37  25 S15       29.80F

$$
NMZ532>537-010000-
EASTCENTRAL PLAINS

CITY           SKY/WX    TMP DP  RH WIND       PRES   REMARKS
TUCUMCARI      SUNNY     81  35  19 SW15G25   29.78S
CANNON AFB     SUNNY     79  38  23 SW14      29.83F
CLOVIS AIRPORT   N/A     79  39  24 W15G24    29.85S

$$
NMZ028-029-538-010000-
SOUTHEAST PLAINS

CITY           SKY/WX    TMP DP  RH WIND       PRES   REMARKS
ROSWELL        SUNNY     83  50  31 NE3       29.79F
CARLSBAD       SUNNY     87  47  24 W16G23    29.78S
HOBBS          MOSUNNY   82  55  39 SW10      29.82F


$$



USA.gov is the U.S. government's official web portal to all federal, state and local government web resources and services.